Location: Fairview
(40.8165°N, 122.7667°W)
Time: 09:48:11
(UTC+00:00)

Cosmos 1844 Rocket - Pass Details

Date: 13 June 2024
Orbit: 825 x 843 km, 71.0° (Epoch: 18 July)

Event Time Altitude Azimuth Distance (km) Brightness Sun altitude
Exits shadow 12:01:09 - 237° (WSW) 2,614 4.6 -6.7°
Reaches altitude 10° 12:01:42 10° 240° (WSW) 2,428 4.4 -6.6°
Maximum altitude 12:06:39 32° 303° (WNW) 1,384 3.7 -5.8°
Drops below altitude 10° 12:11:37 10° 6° (N) 2,434 5.8 -5.1°
Sets 12:14:19 0° 16° (NNE) 3,370 6.8 -4.7°
